TimeCST,TemperatureF,Dew PointF,Humidity,Sea Level PressureIn,VisibilityMPH,Wind Direction,Wind SpeedMPH,Gust SpeedMPH,PrecipitationIn,Events,Conditions,WindDirDegrees,DateUTC
12:15 AM,53.6,53.6,100,30.12,7.0,East,10.4,17.3,0.01,,Overcast,90,2013-01-10 06:15:00
12:35 AM,53.6,53.6,100,30.12,5.0,East,9.2,17.3,0.02,,Drizzle,100,2013-01-10 06:35:00
12:55 AM,53.6,53.6,100,30.11,4.0,East,11.5,-,0.03,,Drizzle,90,2013-01-10 06:55:00
2:15 AM,53.6,53.6,100,30.07,7.0,East,10.4,-,0.01,,Overcast,90,2013-01-10 08:15:00
2:35 AM,53.6,53.6,100,30.06,5.0,East,9.2,-,0.01,Rain,Light Rain,90,2013-01-10 08:35:00
2:55 AM,53.6,53.6,100,30.05,4.0,East,11.5,16.1,0.01,,Overcast,90,2013-01-10 08:55:00
3:15 AM,53.6,53.6,100,30.03,2.5,East,10.4,18.4,0.01,,Overcast,80,2013-01-10 09:15:00
3:35 AM,51.8,51.8,100,30.02,2.5,East,12.7,19.6,0.01,,Overcast,90,2013-01-10 09:35:00
3:55 AM,51.8,51.8,100,30.00,5.0,East,10.4,-,0.02,,Overcast,100,2013-01-10 09:55:00
4:15 AM,51.8,51.8,100,29.99,2.5,East,11.5,-,N/A,,Overcast,100,2013-01-10 10:15:00
4:35 AM,51.8,51.8,100,29.98,1.5,East,10.4,-,N/A,,Overcast,100,2013-01-10 10:35:00
4:55 AM,51.8,51.8,100,29.97,2.0,East,9.2,-,N/A,Rain,Rain,90,2013-01-10 10:55:00
5:35 AM,51.8,51.8,100,29.96,4.0,East,11.5,-,N/A,,Overcast,100,2013-01-10 11:35:00
6:15 AM,51.8,51.8,100,29.95,3.0,East,8.1,-,N/A,,Light Drizzle,100,2013-01-10 12:15:00
6:35 AM,51.8,51.8,100,29.95,2.0,East,6.9,-,0.01,,Overcast,100,2013-01-10 12:35:00
6:55 AM,51.8,51.8,100,29.96,2.0,East,6.9,-,0.01,,Overcast,90,2013-01-10 12:55:00
7:35 AM,51.8,51.8,100,29.95,2.0,East,6.9,-,0.01,Rain,Light Rain,90,2013-01-10 13:35:00
7:55 AM,51.8,51.8,100,29.96,2.5,East,5.8,-,0.01,,Light Drizzle,100,2013-01-10 13:55:00
8:15 AM,51.8,51.8,100,29.95,1.2,East,4.6,-,0.01,Rain,Light Rain,90,2013-01-10 14:15:00
8:35 AM,53.6,53.6,100,29.94,2.0,East,5.8,-,0.02,Rain,Light Rain,90,2013-01-10 14:35:00
9:15 AM,53.6,53.6,100,29.94,1.5,East,8.1,-,0.01,,Overcast,90,2013-01-10 15:15:00
9:35 AM,53.6,53.6,100,29.93,1.2,East,6.9,-,0.01,Rain,Light Rain,100,2013-01-10 15:35:00
9:55 AM,53.6,53.6,100,29.92,2.0,East,8.1,-,0.02,,Overcast,90,2013-01-10 15:55:00
10:15 AM,53.6,53.6,100,29.92,1.5,East,6.9,-,N/A,,Overcast,100,2013-01-10 16:15:00
10:35 AM,55.4,55.4,100,29.92,1.5,SE,8.1,-,N/A,,Overcast,130,2013-01-10 16:35:00
10:55 AM,55.4,55.4,100,29.92,2.0,ESE,6.9,-,0.01,,Overcast,120,2013-01-10 16:55:00
11:15 AM,55.4,55.4,100,29.92,2.5,SE,8.1,-,N/A,,Overcast,140,2013-01-10 17:15:00
11:35 AM,55.4,55.4,100,29.90,7.0,SSE,6.9,-,N/A,,Overcast,150,2013-01-10 17:35:00
11:55 AM,57.2,57.2,100,29.89,10.0,SSE,5.8,-,N/A,,Overcast,150,2013-01-10 17:55:00
12:15 PM,59.0,59.0,100,29.87,10.0,South,4.6,-,N/A,,Overcast,190,2013-01-10 18:15:00
12:35 PM,60.8,60.8,100,29.86,10.0,South,6.9,-,N/A,,Mostly Cloudy,190,2013-01-10 18:35:00
12:55 PM,62.6,59.0,88,29.84,10.0,South,8.1,-,N/A,,Mostly Cloudy,170,2013-01-10 18:55:00
1:15 PM,60.8,57.2,88,29.83,10.0,SSW,8.1,-,N/A,,Scattered Clouds,200,2013-01-10 19:15:00
1:35 PM,62.6,55.4,77,29.82,10.0,South,10.4,-,N/A,,Scattered Clouds,190,2013-01-10 19:35:00
1:55 PM,62.6,55.4,77,29.82,10.0,South,6.9,-,N/A,,Scattered Clouds,190,2013-01-10 19:55:00
2:15 PM,60.8,55.4,82,29.82,10.0,South,8.1,-,N/A,,Overcast,190,2013-01-10 20:15:00
2:35 PM,60.8,55.4,82,29.82,10.0,SSE,6.9,-,N/A,Rain,Light Rain,160,2013-01-10 20:35:00
2:55 PM,57.2,55.4,94,29.84,4.0,SSW,9.2,-,0.01,Rain,Rain,210,2013-01-10 20:55:00
3:15 PM,55.4,55.4,100,29.84,10.0,South,12.7,17.3,N/A,Rain,Light Rain,180,2013-01-10 21:15:00
3:35 PM,55.4,55.4,100,29.85,10.0,South,9.2,-,0.02,Rain,Light Rain,190,2013-01-10 21:35:00
3:55 PM,55.4,55.4,100,29.85,10.0,South,10.4,-,0.03,Rain,Light Rain,170,2013-01-10 21:55:00
4:15 PM,55.4,55.4,100,29.85,10.0,South,10.4,-,0.01,,Light Drizzle,190,2013-01-10 22:15:00
4:35 PM,55.4,55.4,100,29.85,5.0,SSW,13.8,-,0.01,Rain,Rain,200,2013-01-10 22:35:00
4:55 PM,53.6,53.6,100,29.86,7.0,SW,12.7,-,0.02,,Overcast,220,2013-01-10 22:55:00
5:15 PM,53.6,53.6,100,29.86,10.0,SSW,11.5,-,0.01,,Overcast,200,2013-01-10 23:15:00
5:35 PM,53.6,53.6,100,29.86,10.0,South,10.4,-,0.01,,Mostly Cloudy,190,2013-01-10 23:35:00
5:55 PM,53.6,53.6,100,29.86,10.0,South,11.5,-,0.02,,Mostly Cloudy,190,2013-01-10 23:55:00
6:15 PM,53.6,53.6,100,29.86,10.0,SSW,10.4,-,N/A,,Mostly Cloudy,200,2013-01-11 00:15:00
6:35 PM,53.6,53.6,100,29.87,10.0,SSW,9.2,-,0.01,,Mostly Cloudy,200,2013-01-11 00:35:00
6:55 PM,53.6,53.6,100,29.87,10.0,SSW,8.1,-,0.01,,Mostly Cloudy,200,2013-01-11 00:55:00
7:15 PM,53.6,53.6,100,29.87,10.0,SSW,9.2,-,N/A,,Overcast,200,2013-01-11 01:15:00
7:35 PM,53.6,53.6,100,29.87,10.0,SSW,8.1,-,0.01,,Overcast,200,2013-01-11 01:35:00
7:55 PM,53.6,53.6,100,29.86,10.0,South,11.5,-,0.01,,Overcast,190,2013-01-11 01:55:00
8:15 PM,53.6,53.6,100,29.87,10.0,SSW,11.5,16.1,N/A,,Overcast,200,2013-01-11 02:15:00
8:35 PM,53.6,53.6,100,29.87,10.0,SSW,9.2,-,N/A,,Overcast,200,2013-01-11 02:35:00
8:55 PM,53.6,53.6,100,29.87,10.0,SSW,11.5,16.1,N/A,,Overcast,210,2013-01-11 02:55:00
9:15 PM,53.6,53.6,100,29.87,10.0,SSW,12.7,-,N/A,,Overcast,210,2013-01-11 03:15:00
9:35 PM,53.6,53.6,100,29.87,10.0,SSW,10.4,-,N/A,,Overcast,210,2013-01-11 03:35:00
9:55 PM,53.6,53.6,100,29.87,10.0,SSW,12.7,-,N/A,,Overcast,210,2013-01-11 03:55:00
10:15 PM,53.6,53.6,100,29.87,10.0,SSW,11.5,-,N/A,,Overcast,210,2013-01-11 04:15:00
10:35 PM,51.8,51.8,100,29.87,10.0,South,9.2,-,N/A,,Mostly Cloudy,190,2013-01-11 04:35:00
10:55 PM,51.8,51.8,100,29.88,10.0,South,11.5,-,N/A,,Mostly Cloudy,190,2013-01-11 04:55:00
11:15 PM,51.8,51.8,100,29.88,10.0,SSW,10.4,-,N/A,,Scattered Clouds,200,2013-01-11 05:15:00
11:35 PM,51.8,51.8,100,29.87,10.0,SSW,8.1,-,N/A,,Clear,200,2013-01-11 05:35:00
11:55 PM,51.8,51.8,100,29.88,10.0,SSW,8.1,-,N/A,,Clear,200,2013-01-11 05:55:00